Weather in Broken Hill

Australia     31˚57′48″S   141˚28′09″E
temp.,
°C
wind,
m/s
gust,
m/s
humid.,
%
clouds,
%
prec.,
mm/h
press.,
hPa
HPBL,
m
16 january, sat
sat1601:30+15˚s9124376 0.0 1017770
04:30+12˚s8115881 0.0 1016615
07:30+12˚s8116179 0.0 1019658
10:30+17˚sse784072 0.0 10191055
13:30+22˚s662532 0.0 10171525
16:30+25˚s672046 0.0 10141752
19:30+24˚s672244 0.0 10141760
22:30+21˚sse482954 0.0 1016209
17 january, sun
sun1701:30+18˚s8134727 0.0 1017547
04:30+16˚s8115947 0.0 1018502
07:30+15˚sse796522 0.0 1020477
10:30+20˚sse674751 0.0 1020878
13:30+25˚s663337 0.0 10171519
16:30+27˚s662728 0.0 10152012
19:30+26˚sse662797 0.0 10152041
22:30+23˚s593285 0.0 1017280
18 january, mon
mon1801:30+19˚s9134068 0.0 1016390
04:30+16˚s8125257 0.0 1017410
07:30+15˚s8105516 0.0 1018357
10:30+23˚sse77319 0.0 1019659
13:30+27˚sse66220 0.0 10161790
16:30+29˚s66190 0.0 10142323
19:30+27˚s77210 0.0 10142140
22:30+24˚s58270 0.0 1016189
19 january, tue
tue1901:30+20˚s914400 0.0 1016479
04:30+17˚s912590 0.0 1017457
07:30+16˚s811560 0.0 1019474
10:30+22˚sse78380 0.0 1020735
13:30+27˚sse67240 0.0 10171385
16:30+29˚sse67150 0.0 10151854
19:30+28˚sse67200 0.0 10151837
22:30+24˚sse59160 0.0 1017147
20 january, wed
wed2001:30+22˚sse47190 0.0 1017113
04:30+19˚sse47270 0.0 1017113
07:30+18˚sse56270 0.0 1019247
10:30+25˚sse55170 0.0 1019574
13:30+29˚sse541237 0.0 10161511
16:30+31˚sse44830 0.0 10142043
19:30+30˚sse44895 0.0 10131414
22:30+26˚s341081 0.0 101525